Hourly Data Report for October 25, 2013

All times are specified in Local Standard Time (LST). Add 1 hour to adjust for Daylight Saving Time where and when it is observed.

TORONTO INTL A
ONTARIO

43°40'36.000" N
79°37'50.000" W
173.40 m
6158731
71624
YYZ

Download Data

Hourly Data (October 2013)
Hourly Data Report for October 25, 2013
Temp Definition
°C
Dew Point Temp Definition
°C
Rel Hum Definition
%
Wind Dir Definition
10's deg

Wind Spd Definition
km/h
Visibility Definition
km
Stn Press Definition
kPa
Hmdx Definition


Wind Chill Definition


Weather Definition


TIME
00:00 Legend Double Dagger 2.9 1.0 87 28 12 24.1 99.69     LegendNANA
01:00 Legend Double Dagger 2.8 1.2 89 26 15 24.1 99.73     Mainly Clear
02:00 Legend Double Dagger 3.5 1.1 84 29 9 24.1 99.77     LegendNANA
03:00 Legend Double Dagger 2.8 0.9 87 28 11 24.1 99.80     LegendNANA
04:00 Legend Double Dagger 2.7 0.8 87 29 9 24.1 99.84     Mainly Clear
05:00 Legend Double Dagger 2.0 0.5 90 28 7 24.1 99.90     LegendNANA
06:00 Legend Double Dagger 3.0 1.1 87 30 11 24.1 99.95     LegendNANA
07:00 Legend Double Dagger 2.1 0.3 88 29 12 24.1 100.00     Mainly Clear
08:00 Legend Double Dagger 4.1 1.7 84 27 12 24.1 100.08     LegendNANA
09:00 Legend Double Dagger 5.9 1.6 74 28 18 24.1 100.12     LegendNANA
10:00 Legend Double Dagger 6.8 1.9 71 26 16 24.1 100.12     Mostly Cloudy
11:00 Legend Double Dagger 8.2 1.6 63 26 25 24.1 100.11     LegendNANA
12:00 Legend Double Dagger 8.2 1.4 62 28 24 24.1 100.06     LegendNANA
13:00 Legend Double Dagger 9.2 -0.4 51 31 26 24.1 100.02     Rain Showers
14:00 Legend Double Dagger 7.2 0.9 64 28 17 24.1 100.05     LegendNANA
15:00 Legend Double Dagger 7.6 0.6 61 27 33 24.1 100.03     Rain Showers
16:00 Legend Double Dagger 6.4 1.7 72 26 21 24.1 100.04     Mostly Cloudy
17:00 Legend Double Dagger 4.6 2.0 83 28 13 24.1 100.05     LegendNANA
18:00 Legend Double Dagger 4.6 2.1 84 25 13 24.1 100.04     LegendNANA
19:00 Legend Double Dagger 4.0 1.7 85 24 14 24.1 99.98     Mostly Cloudy
20:00 Legend Double Dagger 5.6 1.7 76 21 11 24.1 99.97     LegendNANA
21:00 Legend Double Dagger 4.7 -0.1 71 22 14 24.1 99.91     LegendNANA
22:00 Legend Double Dagger 4.5 -0.9 68 24 18 24.1 99.84     Mostly Cloudy
23:00 Legend Double Dagger 4.7 -1.3 65 24 18 24.1 99.76     LegendNANA

Notes on Data Quality.

Legend

  • E = Estimated
  • M = Missing
  • NA = Not Available
  • ‡ = Partner data that is not subject to review by the National Climate Archives
Date modified: